EW0199 Weather Reports


Display with metric or nautical units.
time (UTC)temp
F
wind
direction
speed
MPH
gust
MPH
rain 1hr
in
rain 24hr
in
rain mn
in
humidity
%
barometer
mb
20260508023337 43 290 0.0 2.0 0.00 0.00 0.00 53 1008.7
20260508022904 44 324 0.0 8.0 0.00 0.00 0.00 53 1008.7
20260508021841 38 195 0.0 1.0 0.00 0.00 0.00 66 1008.7
20260508021409 38 257 0.0 0.0 0.00 0.00 0.00 68 1008.6
20260508020829 38 257 0.0 0.0 0.00 0.00 0.00 66 1008.5
20260508020348 38 257 0.0 0.0 0.00 0.00 0.00 66 1008.5
20260508015911 38 257 0.0 0.0 0.00 0.00 0.00 65 1008.4
20260508015330 38 257 0.0 0.0 0.00 0.00 0.00 67 1008.3
20260508014849 38 257 0.0 0.0 0.00 0.00 0.00 67 1008.2
20260508014419 39 257 0.0 0.0 0.00 0.00 0.00 63 1008.2
20260508013839 39 257 0.0 0.0 0.00 0.00 0.00 61 1008.1
20260508012850 41 257 0.0 0.0 0.00 0.00 0.00 59 1008.0
20260508012414 41 257 0.0 0.0 0.00 0.00 0.00 53 1008.0
20260508011830 43 257 0.0 0.0 0.00 0.00 0.00 51 1008.0
20260508011341 44 257 0.0 0.0 0.00 0.00 0.00 50 1007.9
20260508010848 45 257 0.0 0.0 0.00 0.00 0.00 48 1007.9
20260508005846 46 257 0.0 0.0 0.00 0.00 0.00 42 1007.9
20260508005347 47 257 0.0 1.0 0.00 0.00 0.00 42 1007.8
20260508004344 49 267 0.0 0.0 0.00 0.00 0.00 40 1007.8
20260508003935 50 267 0.0 1.0 0.00 0.00 0.00 38 1007.8
20260508003335 50 268 0.0 6.0 0.00 0.00 0.00 39 1007.9
20260508002857 50 309 2.0 6.0 0.00 0.00 0.00 36 1007.8
20260508002406 50 229 3.0 6.0 0.00 0.00 0.00 36 1007.7
20260508001824 51 283 1.0 6.0 0.00 0.00 0.00 37 1007.7
20260508001347 51 255 2.0 9.0 0.00 0.00 0.00 37 1007.7
20260508000910 51 289 2.0 9.0 0.00 0.00 0.00 36 1007.7
20260508000419 52 293 3.0 9.0 0.00 0.00 0.00 36 1007.7
20260507235838 52 271 2.0 7.0 0.00 0.00 0.00 35 1007.7
20260507235406 52 264 1.0 5.0 0.00 0.00 0.00 36 1007.7
20260507234832 52 312 1.0 5.0 0.00 0.00 0.00 37 1007.6
20260507234359 51 96 1.0 5.0 0.00 0.00 0.00 36 1007.7
20260507233922 51 267 1.0 6.0 0.00 0.00 0.00 37 1007.7
20260507233346 50 257 2.0 6.0 0.00 0.00 0.00 39 1007.8
20260507232831 50 305 1.0 7.0 0.00 0.00 0.00 39 1007.9
20260507232355 50 316 3.0 7.0 0.00 0.00 0.00 39 1007.8
20260507231920 50 323 2.0 7.0 0.00 0.00 0.00 38 1007.9
20260507231430 50 312 1.0 3.0 0.00 0.00 0.00 38 1007.8
20260507230909 50 286 0.0 6.0 0.00 0.00 0.00 39 1007.9
20260507230322 50 285 2.0 6.0 0.00 0.00 0.00 38 1008.0
20260507225842 50 283 2.0 7.0 0.00 0.00 0.00 39 1008.0
20260507225352 50 291 1.0 7.0 0.00 0.00 0.00 40 1008.1
20260507224855 49 316 1.0 7.0 0.00 0.00 0.00 39 1008.0
20260507224403 49 339 2.0 4.0 0.00 0.00 0.00 40 1008.0
20260507223909 49 321 1.0 3.0 0.00 0.00 0.00 39 1008.1
20260507223329 49 283 0.0 2.0 0.00 0.00 0.00 38 1008.1
20260507222856 49 305 0.0 2.0 0.00 0.00 0.00 40 1008.1
20260507222405 49 283 0.0 5.0 0.00 0.00 0.00 40 1008.1
20260507221824 50 299 1.0 6.0 0.00 0.00 0.00 38 1008.1
20260507221347 50 293 2.0 6.0 0.00 0.00 0.00 40 1008.0
20260507220913 49 282 3.0 8.0 0.00 0.00 0.00 41 1008.1
20260507220420 49 312 3.0 12.0 0.00 0.00 0.00 40 1008.1
20260507215919 49 321 5.0 12.0 0.00 0.00 0.00 40 1008.1
20260507215345 49 319 5.0 11.0 0.00 0.00 0.00 40 1008.1
20260507214340 49 305 5.0 10.0 0.00 0.00 0.00 38 1008.1
20260507213908 50 305 4.0 7.0 0.00 0.00 0.00 39 1008.1
20260507213327 50 306 4.0 11.0 0.00 0.00 0.00 39 1008.1
20260507212855 50 253 4.0 11.0 0.00 0.00 0.00 37 1008.1
20260507212420 50 302 4.0 8.0 0.00 0.00 0.00 37 1008.1
20260507211840 50 305 2.0 7.0 0.00 0.00 0.00 40 1008.0
20260507211405 49 336 2.0 6.0 0.00 0.00 0.00 40 1008.1
20260507210909 49 293 3.0 9.0 0.00 0.00 0.00 42 1008.2
20260507210419 49 347 2.0 11.0 0.00 0.00 0.00 42 1008.3
20260507205904 49 312 4.0 11.0 0.00 0.00 0.00 41 1008.3
20260507205324 49 331 3.0 13.0 0.00 0.00 0.00 41 1008.3
20260507204848 49 316 6.0 13.0 0.00 0.00 0.00 39 1008.3
20260507204410 49 283 4.0 10.0 0.00 0.00 0.00 39 1008.3
20260507203856 50 240 4.0 8.0 0.00 0.00 0.00 38 1008.4
20260507203415 50 295 3.0 8.0 0.00 0.00 0.00 40 1008.4
20260507202915 50 273 4.0 10.0 0.00 0.00 0.00 40 1008.5
20260507202422 49 245 1.0 10.0 0.00 0.00 0.00 40 1008.5
20260507201837 49 290 5.0 10.0 0.00 0.00 0.00 41 1008.5
20260507201400 48 299 2.0 6.0 0.00 0.00 0.00 40 1008.5
20260507200907 48 313 3.0 6.0 0.00 0.00 0.00 40 1008.5
20260507200324 48 305 2.0 7.0 0.00 0.00 0.00 41 1008.6
20260507195845 48 309 4.0 11.0 0.00 0.00 0.00 41 1008.6
20260507194845 49 335 2.0 12.0 0.00 0.00 0.00 40 1008.7
20260507193847 50 271 3.0 9.0 0.00 0.00 0.00 41 1008.7
20260507192849 49 268 5.0 11.0 0.00 0.00 0.00 44 1008.9
20260507192441 49 302 3.0 9.0 0.00 0.00 0.00 42 1008.9
20260507191927 49 312 4.0 9.0 0.00 0.00 0.00 43 1008.9
20260507191415 48 309 1.0 8.0 0.00 0.00 0.00 46 1009.0
20260507190832 48 320 2.0 9.0 0.00 0.00 0.00 48 1009.0
20260507190353 47 357 2.0 9.0 0.00 0.00 0.00 48 1009.0
20260507185915 47 300 5.0 11.0 0.00 0.00 0.00 48 1009.1
20260507185416 47 248 6.0 11.0 0.00 0.00 0.00 48 1009.1
20260507184832 47 23 4.0 9.0 0.00 0.00 0.00 50 1009.1
20260507184354 46 305 4.0 9.0 0.00 0.00 0.00 51 1009.2
20260507183916 46 345 3.0 8.0 0.00 0.00 0.00 51 1009.2
20260507183343 46 300 4.0 12.0 0.00 0.00 0.00 51 1009.2
20260507182346 47 299 5.0 13.0 0.00 0.00 0.00 45 1009.1
20260507181909 47 298 2.0 7.0 0.00 0.00 0.00 44 1008.9
20260507181328 47 321 2.0 9.0 0.00 0.00 0.00 42 1008.9
20260507180851 47 263 4.0 11.0 0.00 0.00 0.00 41 1009.0
20260507180400 48 283 2.0 11.0 0.00 0.00 0.00 42 1009.1
20260507175921 48 279 2.0 14.0 0.00 0.00 0.00 40 1009.0
20260507175406 48 253 6.0 14.0 0.00 0.00 0.00 40 1009.1
20260507174929 48 283 3.0 9.0 0.00 0.00 0.00 41 1009.2
20260507174414 48 292 3.0 9.0 0.00 0.00 0.00 42 1009.4
20260507173912 48 302 4.0 9.0 0.00 0.00 0.00 44 1009.4
20260507173334 48 305 2.0 8.0 0.00 0.00 0.00 44 1009.5
20260507172842 48 357 3.0 7.0 0.00 0.00 0.00 46 1009.4
20260507172410 47 293 2.0 8.0 0.00 0.00 0.00 47 1009.5
20260507171825 47 299 1.0 8.0 0.00 0.00 0.00 48 1009.7
20260507171347 47 293 5.0 8.0 0.00 0.00 0.00 46 1009.7
20260507170856 46 191 1.0 8.0 0.00 0.00 0.00 49 1009.8
20260507170403 46 150 2.0 7.0 0.00 0.00 0.00 51 1009.8
20260507165905 45 279 1.0 6.0 0.00 0.00 0.00 54 1009.9
20260507165404 44 294 1.0 7.0 0.00 0.00 0.00 55 1010.0
20260507164920 44 279 2.0 7.0 0.00 0.00 0.00 56 1010.2
20260507164342 44 257 2.0 7.0 0.00 0.00 0.00 55 1010.3
20260507163910 44 300 2.0 7.0 0.00 0.00 0.00 55 1010.3
20260507163333 44 283 2.0 8.0 0.00 0.00 0.00 53 1010.3
20260507162839 44 269 2.0 8.0 0.00 0.00 0.00 53 1010.4
20260507162347 45 285 4.0 8.0 0.00 0.00 0.00 52 1010.4
20260507161344 45 305 5.0 10.0 0.00 0.00 0.00 53 1010.2
20260507160900 45 321 4.0 9.0 0.00 0.00 0.00 53 1010.4
20260507160406 45 267 4.0 10.0 0.00 0.00 0.00 52 1010.4
20260507155930 45 273 3.0 13.0 0.00 0.00 0.00 53 1010.4
20260507155432 45 303 3.0 13.0 0.00 0.00 0.00 52 1010.4
20260507154934 45 299 5.0 11.0 0.00 0.00 0.00 52 1010.5
20260507154336 45 297 3.0 7.0 0.00 0.00 0.00 53 1010.5
20260507153900 45 180 3.0 7.0 0.00 0.00 0.00 54 1010.6
20260507153417 45 268 2.0 9.0 0.00 0.00 0.00 54 1010.6
20260507152841 44 333 3.0 11.0 0.00 0.00 0.00 55 1010.7
20260507152405 44 276 7.0 11.0 0.00 0.00 0.00 54 1010.7
20260507151853 44 258 3.0 9.0 0.00 0.00 0.00 55 1010.7
20260507151357 44 282 5.0 8.0 0.00 0.00 0.00 55 1010.8
20260507150920 44 216 3.0 8.0 0.00 0.00 0.00 56 1010.8
20260507150344 44 315 2.0 6.0 0.00 0.00 0.00 56 1010.8
20260507145850 44 262 2.0 5.0 0.00 0.00 0.00 57 1010.8
20260507145414 43 297 1.0 9.0 0.00 0.00 0.00 57 1010.9
20260507144919 43 331 3.0 9.0 0.00 0.00 0.00 57 1010.9
20260507144403 43 300 4.0 8.0 0.00 0.00 0.00 57 1010.9
20260507143907 43 253 3.0 9.0 0.00 0.00 0.00 56 1011.0
20260507143359 43 254 1.0 8.0 0.00 0.00 0.00 59 1011.0
20260507142903 43 295 5.0 9.0 0.00 0.00 0.00 57 1011.1
20260507142410 43 231 2.0 9.0 0.00 0.00 0.00 59 1011.2
20260507141909 42 277 3.0 7.0 0.00 0.00 0.00 58 1011.2
20260507141329 42 223 2.0 9.0 0.00 0.00 0.00 58 1011.2
20260507140836 42 320 2.0 10.0 0.00 0.00 0.00 59 1011.2
20260507140359 42 300 1.0 10.0 0.00 0.00 0.00 59 1011.3
20260507135902 42 258 3.0 10.0 0.00 0.00 0.00 59 1011.4
20260507135324 42 316 2.0 8.0 0.00 0.00 0.00 61 1011.3
20260507134833 41 282 3.0 8.0 0.00 0.00 0.00 60 1011.3
20260507134340 41 288 3.0 7.0 0.00 0.00 0.00 60 1011.3
20260507133905 41 277 1.0 5.0 0.00 0.00 0.00 62 1011.4
20260507133322 41 302 2.0 7.0 0.00 0.00 0.00 61 1011.3
20260507132828 40 288 2.0 5.0 0.00 0.00 0.00 62 1011.3
20260507132348 40 319 3.0 6.0 0.00 0.00 0.00 62 1011.3
20260507131855 40 268 3.0 6.0 0.00 0.00 0.00 62 1011.4
20260507131343 40 288 1.0 5.0 0.00 0.00 0.00 63 1011.3
20260507130843 40 290 1.0 5.0 0.00 0.00 0.00 64 1011.3
20260507130409 39 317 0.0 3.0 0.00 0.00 0.00 65 1011.3
20260507125827 39 234 1.0 4.0 0.00 0.00 0.00 64 1011.3
20260507125358 39 290 1.0 4.0 0.00 0.00 0.00 64 1011.3
20260507124905 39 282 2.0 4.0 0.00 0.00 0.00 65 1011.4
20260507123844 38 290 1.0 3.0 0.00 0.00 0.00 66 1011.4
20260507123410 38 289 1.0 4.0 0.00 0.00 0.00 66 1011.3
20260507122921 38 303 1.0 4.0 0.00 0.00 0.00 66 1011.4
20260507122436 38 312 0.0 4.0 0.00 0.00 0.00 67 1011.3
20260507121823 38 283 1.0 4.0 0.00 0.00 0.00 67 1011.3
20260507121349 38 304 1.0 4.0 0.00 0.00 0.00 67 1011.2
20260507120911 37 268 1.0 5.0 0.00 0.00 0.00 67 1011.1
20260507120417 37 278 2.0 5.0 0.00 0.00 0.00 67 1011.1
20260507115918 37 274 1.0 4.0 0.00 0.00 0.00 68 1011.1
20260507115323 37 293 0.0 4.0 0.00 0.00 0.00 69 1011.0
20260507114845 37 286 0.0 2.0 0.00 0.00 0.00 69 1011.0
20260507114344 37 316 0.0 3.0 0.00 0.00 0.00 68 1011.0
20260507113859 37 271 0.0 3.0 0.00 0.00 0.00 69 1010.9
20260507113423 37 281 0.0 3.0 0.00 0.00 0.00 69 1010.8
20260507112827 37 305 1.0 3.0 0.00 0.00 0.00 69 1010.8
20260507112335 37 319 1.0 3.0 0.00 0.00 0.00 69 1010.8
20260507111843 37 293 0.0 2.0 0.00 0.00 0.00 69 1010.8
20260507110843 37 292 1.0 3.0 0.00 0.00 0.00 69 1010.7
20260507110328 37 286 0.0 3.0 0.00 0.00 0.00 69 1010.6
20260507105848 37 293 0.0 3.0 0.00 0.00 0.00 69 1010.7
20260507104845 36 267 0.0 3.0 0.00 0.00 0.00 69 1010.7
20260507103846 36 296 0.0 4.0 0.00 0.00 0.00 69 1010.7
20260507102844 36 268 0.0 4.0 0.00 0.00 0.00 69 1010.6
20260507102329 36 274 1.0 4.0 0.00 0.00 0.00 69 1010.7
20260507101838 36 275 1.0 2.0 0.00 0.00 0.00 69 1010.7
20260507101408 36 271 0.0 2.0 0.00 0.00 0.00 69 1010.7
20260507100353 36 285 0.0 2.0 0.00 0.00 0.00 69 1010.7
20260507095345 36 306 0.0 3.0 0.00 0.00 0.00 69 1010.8
20260507094343 37 293 0.0 3.0 0.00 0.00 0.00 69 1010.8
20260507093348 37 286 0.0 2.0 0.00 0.00 0.00 69 1010.7
20260507092911 37 293 0.0 2.0 0.00 0.00 0.00 69 1010.7
20260507092419 37 262 0.0 3.0 0.00 0.00 0.00 68 1010.8
20260507091841 37 293 0.0 3.0 0.00 0.00 0.00 68 1010.8
20260507091408 37 274 0.0 4.0 0.00 0.00 0.00 68 1010.8
20260507090834 37 285 0.0 4.0 0.00 0.00 0.00 68 1010.7
20260507090349 37 290 0.0 4.0 0.00 0.00 0.00 68 1010.8
20260507085846 37 298 0.0 4.0 0.00 0.00 0.00 68 1010.8
20260507085410 37 295 1.0 3.0 0.00 0.00 0.00 68 1010.8
20260507084834 37 306 0.0 1.0 0.00 0.00 0.00 68 1010.9
20260507084400 37 289 0.0 1.0 0.00 0.00 0.00 68 1010.9
20260507083823 37 289 0.0 1.0 0.00 0.00 0.00 68 1010.9
20260507083352 37 293 0.0 1.0 0.00 0.00 0.00 68 1010.9
20260507082915 37 307 0.0 1.0 0.00 0.00 0.00 67 1010.9
20260507082337 37 278 0.0 2.0 0.00 0.00 0.00 67 1010.8
20260507081900 37 298 0.0 2.0 0.00 0.00 0.00 67 1010.8
20260507081408 37 300 1.0 2.0 0.00 0.00 0.00 66 1010.8
20260507080920 37 289 0.0 1.0 0.00 0.00 0.00 67 1010.9
20260507080337 37 282 0.0 1.0 0.00 0.00 0.00 67 1010.9
20260507075847 37 295 0.0 1.0 0.00 0.00 0.00 67 1011.0
20260507075412 37 290 0.0 1.0 0.00 0.00 0.00 67 1011.0
20260507074830 37 295 0.0 1.0 0.00 0.00 0.00 67 1011.0
20260507074354 37 283 0.0 1.0 0.00 0.00 0.00 66 1011.0
20260507073902 38 283 0.0 1.0 0.00 0.00 0.00 65 1011.0
20260507073350 38 278 0.0 1.0 0.00 0.00 0.00 65 1011.0
20260507072913 38 299 0.0 1.0 0.00 0.00 0.00 64 1011.0
20260507072324 38 292 0.0 1.0 0.00 0.00 0.00 64 1011.1
20260507071848 38 292 0.0 1.0 0.00 0.00 0.00 64 1011.1
20260507071416 38 296 0.0 1.0 0.00 0.00 0.00 64 1011.2
20260507070834 38 296 0.0 1.0 0.00 0.00 0.00 64 1011.2
20260507070351 39 289 0.0 2.0 0.00 0.00 0.00 63 1011.3
20260507065826 39 288 0.0 2.0 0.00 0.00 0.00 62 1011.3
20260507065332 39 283 0.0 1.0 0.00 0.00 0.00 62 1011.4
20260507064839 39 288 0.0 1.0 0.00 0.00 0.00 61 1011.5
20260507064325 39 290 0.0 4.0 0.00 0.00 0.00 61 1011.5
20260507063829 39 286 0.0 4.0 0.00 0.00 0.00 61 1011.6
20260507063335 39 285 0.0 4.0 0.00 0.00 0.00 61 1011.6
20260507062842 39 285 1.0 4.0 0.00 0.00 0.00 61 1011.7
20260507062327 39 233 1.0 3.0 0.00 0.00 0.00 61 1011.7
20260507061835 39 288 0.0 3.0 0.00 0.00 0.00 60 1011.7
20260507061341 39 292 1.0 4.0 0.00 0.00 0.00 60 1011.8
20260507060827 39 286 0.0 3.0 0.00 0.00 0.00 60 1011.8
20260507060333 39 288 0.0 2.0 0.00 0.00 0.00 60 1011.8
20260507055838 39 211 0.0 4.0 0.00 0.00 0.00 60 1011.9
20260507055324 39 288 2.0 4.0 0.00 0.00 0.00 60 1011.9
20260507054830 39 288 1.0 4.0 0.00 0.00 0.00 60 1012.0
20260507054335 39 279 0.0 1.0 0.00 0.00 0.00 61 1012.0
20260507053826 39 290 0.0 1.0 0.00 0.00 0.00 61 1012.0
20260507053332 38 288 0.0 0.0 0.00 0.00 0.00 60 1012.1
20260507052839 38 245 0.0 2.0 0.00 0.00 0.00 61 1012.1
20260507052325 38 253 0.0 0.0 0.00 0.00 0.00 62 1012.2
20260507051831 38 276 0.0 0.0 0.00 0.00 0.00 62 1012.3
20260507051337 38 276 0.0 0.0 0.00 0.00 0.00 61 1012.3
20260507050844 38 276 0.0 0.0 0.00 0.00 0.00 61 1012.3
20260507050330 38 276 0.0 0.0 0.00 0.00 0.00 61 1012.3
20260507045347 39 276 0.0 0.0 0.00 0.00 0.00 60 1012.3
20260507044912 38 276 0.0 0.0 0.00 0.00 0.00 61 1012.2
20260507044328 39 277 0.0 0.0 0.00 0.00 0.00 61 1012.3
20260507043851 39 277 0.0 0.0 0.00 0.00 0.00 60 1012.3
20260507043419 39 276 0.0 0.0 0.00 0.00 0.00 62 1012.3
20260507042838 39 276 0.0 0.0 0.00 0.00 0.00 60 1012.3
20260507042402 39 276 0.0 0.0 0.00 0.00 0.00 61 1012.3
20260507041827 39 276 0.0 0.0 0.00 0.00 0.00 61 1012.3
20260507041353 39 276 0.0 0.0 0.00 0.00 0.00 58 1012.3
20260507040901 39 276 0.0 0.0 0.00 0.00 0.00 56 1012.3
20260507035844 39 276 0.0 0.0 0.00 0.00 0.00 57 1012.2
20260507035407 40 276 0.0 0.0 0.00 0.00 0.00 56 1012.3
20260507034823 40 276 0.0 0.0 0.00 0.00 0.00 55 1012.2
20260507034342 40 276 0.0 0.0 0.00 0.00 0.00 54 1012.3
20260507033905 40 276 0.0 1.0 0.00 0.00 0.00 55 1012.3
20260507033325 41 276 0.0 1.0 0.00 0.00 0.00 54 1012.3
20260507032850 41 276 0.0 1.0 0.00 0.00 0.00 53 1012.3
20260507032349 41 281 0.0 2.0 0.00 0.00 0.00 52 1012.3
20260507031847 41 281 0.0 2.0 0.00 0.00 0.00 51 1012.4
20260507030847 41 312 0.0 3.0 0.00 0.00 0.00 51 1012.4
20260507030416 41 312 1.0 5.0 0.00 0.00 0.00 50 1012.5
20260507025918 41 298 2.0 6.0 0.00 0.00 0.00 50 1012.5
20260507025342 41 309 2.0 8.0 0.00 0.00 0.00 50 1012.5
20260507024339 41 312 2.0 8.0 0.00 0.00 0.00 52 1012.6